DateTimeUTC,F1_A11,F1_S11,BsB_S11,BsG_S11,BsR_S11,BbsB_S11,BbsG_S11,BbsR_S11,BaB_A11,BaG_A11,BaR_A11,Tu_S11,T_S11,Uu_S11,U_S11,P_S11,T1_A11
2021-06-25T15:00:00Z,00000200,20000000,,,,,,,0000.17,0000.15,-000.00,18.2,24.8,08.1,05.4,0662.5,31.1
2021-06-25T15:01:00Z,00000200,20000000,,,,,,,0000.13,-000.27,-000.07,18.2,24.8,08.1,05.4,0662.5,31.1
2021-06-25T15:02:00Z,00000200,20000000,,,,,,,-000.14,-000.19,-000.19,18.2,24.8,08.1,05.4,0662.4,31.1
2021-06-25T15:03:00Z,00000200,60000000,,,,,,,0000.09,0000.72,0000.51,18.2,24.8,08.1,05.4,0662.4,31.1
2021-06-25T15:04:00Z,00000200,40000000,0002.09,0000.89,0000.39,0000.25,0000.10,0000.24,0000.56,0000.33,0000.04,18.3,24.6,07.8,05.3,0663.2,31.1
2021-06-25T15:05:00Z,00000200,00000000,0001.99,0000.77,0000.58,0000.26,-000.15,0000.20,0000.48,0000.36,0000.17,18.3,24.6,07.8,05.4,0663.5,31.1
2021-06-25T15:06:00Z,00000200,00000000,0001.62,0000.85,0000.44,0000.41,0000.57,0000.24,0000.25,0000.11,0000.35,18.3,24.5,07.8,05.3,0663.4,31.1
2021-06-25T15:07:00Z,00000200,00000000,0001.48,0000.89,0000.15,0000.08,0000.12,0000.07,0000.48,0000.65,0000.03,18.3,24.5,07.9,05.4,0663.4,31.1
2021-06-25T15:08:00Z,00000200,00000000,0001.48,0000.80,0000.49,-000.27,0000.36,0000.18,0000.21,0000.23,0000.32,18.3,24.5,07.9,05.4,0663.4,31.1
2021-06-25T15:09:00Z,00000200,00000000,0001.86,0000.41,0000.33,0000.14,0000.34,0000.30,0000.12,0000.11,0000.45,18.3,24.5,07.9,05.4,0663.5,31.1
2021-06-25T15:10:00Z,00000200,00000000,0002.02,0000.66,0000.46,-000.03,0000.25,0000.15,0000.52,0000.70,0000.06,18.3,24.5,08.0,05.4,0663.6,31.1
2021-06-25T15:11:00Z,00000200,00000000,0001.67,0000.85,0000.28,0000.46,0000.47,0000.15,0000.22,0000.21,0000.32,18.3,24.5,08.0,05.5,0663.7,31.1
2021-06-25T15:12:00Z,00000200,00000000,0001.21,0001.12,0000.33,-000.16,0000.08,0000.36,0000.72,0000.78,0000.74,18.3,24.5,08.2,05.6,0664.0,31.1
2021-06-25T15:13:00Z,00000200,00000000,0001.55,0000.76,0000.35,-000.34,0000.16,-000.03,0000.47,-000.08,-000.02,18.3,24.5,08.4,05.7,0663.6,31.1
2021-06-25T15:14:00Z,00000200,00000000,0001.74,0000.99,0000.60,0000.02,0000.14,0000.45,0000.17,0000.47,0000.15,18.2,24.5,08.2,05.6,0663.7,31.1
2021-06-25T15:15:00Z,00000200,00000000,0002.00,0001.19,0000.35,-000.02,0000.09,0000.00,-000.07,0000.08,0000.20,18.2,24.4,08.3,05.6,0663.6,31.1
2021-06-25T15:16:00Z,00000200,00000000,0001.55,0000.93,0000.21,0000.50,0000.19,-000.15,0000.82,0000.27,0000.09,18.2,24.4,08.2,05.6,0663.5,31.1
2021-06-25T15:17:00Z,00000200,00000000,0000.86,0000.75,0000.35,0000.08,0000.07,0000.13,0000.24,0000.25,0000.34,18.2,24.4,08.1,05.5,0663.5,31.1
2021-06-25T15:18:00Z,00000200,00000000,0001.44,0001.11,0000.46,0000.05,0000.34,0000.24,0000.36,0000.49,0000.18,18.2,24.4,08.0,05.5,0663.4,31.1
2021-06-25T15:19:00Z,00000200,00000000,0001.63,0001.20,0000.47,0000.23,0000.29,0000.58,0000.41,0000.10,0000.40,18.2,24.4,08.1,05.6,0663.7,31.1
2021-06-25T15:20:00Z,00000200,00000000,0001.44,0001.04,0000.25,0000.03,0000.12,0000.08,0000.53,0000.65,0000.62,18.3,24.4,08.1,05.6,0663.7,31.1
2021-06-25T15:21:00Z,00000200,00000000,0001.21,0000.99,0000.45,0000.43,0000.20,0000.13,0000.38,0000.32,-000.29,18.4,24.5,08.1,05.6,0663.4,31.1
2021-06-25T15:22:00Z,00000200,00000000,0001.54,0000.97,0000.30,0000.15,0000.17,0000.34,0000.16,0000.35,0000.72,18.4,24.5,08.2,05.7,0663.6,31.1
2021-06-25T15:23:00Z,00000200,00000000,0001.54,0001.02,-000.07,0000.52,0000.19,0000.24,0000.40,0000.23,0000.04,18.5,24.5,08.2,05.6,0663.7,31.1
2021-06-25T15:24:00Z,00000200,00000000,0001.50,0000.84,0000.49,0000.31,-000.10,0000.13,0000.12,0000.16,-000.04,18.5,24.6,07.9,05.4,0663.4,31.1
2021-06-25T15:25:00Z,00000200,00000000,0001.56,0000.95,0000.57,0000.45,0000.22,-000.10,0000.55,0000.21,0000.55,18.5,24.6,07.9,05.4,0663.8,31.1
2021-06-25T15:26:00Z,00000200,00000000,0001.24,0000.74,0000.39,0000.40,0000.25,0000.62,0000.03,0000.09,-000.16,18.4,24.6,07.9,05.5,0663.5,31.1
2021-06-25T15:27:00Z,00000200,00000000,0001.45,0000.65,0000.43,0000.23,0000.14,0000.22,0000.11,0000.20,0000.01,18.4,24.5,07.8,05.4,0663.3,31.1
2021-06-25T15:28:00Z,00000200,00000000,0001.91,0001.00,0000.48,0000.49,0000.18,0000.46,0000.51,0000.69,0000.53,18.4,24.6,07.6,05.2,0663.4,31.1
2021-06-25T15:29:00Z,00000200,00000000,0001.90,0001.09,0000.63,0000.38,0000.15,0000.37,0000.60,0000.10,0000.26,18.4,24.5,07.9,05.4,0663.8,31.1
2021-06-25T15:30:00Z,00000200,00000000,0001.86,0001.09,0000.79,0000.14,0000.36,0000.18,-000.22,0000.19,-000.13,18.3,24.5,07.9,05.4,0663.4,31.1
2021-06-25T15:31:00Z,00000200,00000000,0001.51,0000.82,0000.61,0000.25,0000.16,0000.17,0000.43,0000.33,0000.62,18.3,24.5,07.7,05.3,0663.5,31.1
2021-06-25T15:32:00Z,00000200,00000000,0001.18,0000.85,0000.57,0000.33,0000.43,0000.24,0000.62,0000.48,0000.21,18.3,24.5,07.8,05.4,0663.6,31.1
2021-06-25T15:33:00Z,00000200,00000000,0000.97,0000.58,0000.39,0000.26,0000.36,0000.11,0000.65,0000.53,0000.35,18.3,24.5,07.9,05.4,0663.6,31.1
2021-06-25T15:34:00Z,00000200,00000000,0001.38,0000.84,0000.73,0000.19,0000.12,0000.26,0000.00,0000.30,0000.34,18.4,24.5,07.8,05.3,0663.5,31.1
2021-06-25T15:35:00Z,00000200,00000000,0001.79,0001.05,0000.56,0000.40,0000.48,0000.41,0000.63,0000.42,0000.45,18.4,24.5,07.8,05.4,0663.9,31.1
2021-06-25T15:36:00Z,00000200,00000000,0001.40,0000.86,0000.43,-000.06,0000.16,0000.25,0000.56,0000.15,0000.07,18.5,24.6,08.0,05.5,0663.8,31.1
2021-06-25T15:37:00Z,00000200,00000000,0002.08,0000.56,0000.55,-000.09,-000.08,0000.34,-000.09,0000.30,-000.06,18.5,24.6,07.9,05.4,0663.6,31.1
2021-06-25T15:38:00Z,00000200,00000000,0001.64,0000.96,0000.41,0000.14,0000.27,0000.18,0000.05,0000.28,0000.28,18.6,24.6,07.6,05.2,0663.5,31.1
2021-06-25T15:39:00Z,00000200,00000000,0001.87,0001.00,0000.51,0000.32,0000.24,0000.20,0000.58,0000.22,0000.18,18.6,24.6,07.6,05.2,0663.8,31.1
2021-06-25T15:40:00Z,00000200,00000000,0001.03,0000.94,0000.61,0000.16,0000.14,0000.25,0000.29,0000.33,0000.25,18.5,24.6,07.7,05.3,0663.8,31.1
2021-06-25T15:41:00Z,00000200,00000000,0001.64,0000.70,0000.32,0000.36,0000.16,0000.25,0000.07,0000.25,0000.25,18.5,24.6,07.9,05.4,0663.9,31.1
2021-06-25T15:42:00Z,00000200,00000000,0001.57,0000.86,0000.56,0000.68,0000.08,-000.12,0000.68,0000.40,0000.40,18.5,24.6,07.8,05.4,0663.8,31.1
2021-06-25T15:43:00Z,00000200,00000000,0002.13,0001.10,0000.41,0000.13,0000.16,0000.32,-000.30,-000.21,-000.26,18.5,24.6,07.9,05.4,0663.4,31.1
2021-06-25T15:44:00Z,00000200,00000000,0001.69,0001.04,0000.45,0000.29,0000.07,0000.18,0000.62,0000.44,-000.02,18.5,24.5,07.4,05.1,0663.5,31.1
2021-06-25T15:45:00Z,00000200,00000000,0001.73,0000.95,0000.19,-000.10,0000.18,0000.06,0000.44,0000.60,0000.74,18.4,24.5,07.6,05.2,0663.8,31.1
2021-06-25T15:46:00Z,00000200,00000000,0000.93,0000.88,0000.52,-000.35,0000.44,0000.30,0000.13,-000.01,0000.02,18.4,24.5,07.6,05.3,0663.9,31.1
2021-06-25T15:47:00Z,00000200,00000000,0001.29,0000.60,0000.32,0000.22,0000.13,-000.07,0000.13,0000.57,0000.04,18.4,24.5,07.6,05.3,0663.9,31.1
2021-06-25T15:48:00Z,00000200,00000000,0001.51,0000.96,0000.44,0000.47,-000.14,0000.32,0001.08,0000.31,0000.63,18.4,24.5,07.5,05.2,0664.0,31.1
2021-06-25T15:49:00Z,00000200,00000000,0001.73,0001.04,0000.54,0000.31,0000.08,0000.34,0000.21,0000.35,0000.02,18.5,24.5,07.7,05.3,0663.9,31.1
2021-06-25T15:50:00Z,00000200,00000000,0001.90,0000.91,0000.51,0000.01,0000.15,0000.50,0000.23,0000.09,0000.58,18.5,24.6,07.5,05.2,0664.0,31.1
2021-06-25T15:51:00Z,00000200,00000000,0001.07,0000.80,0000.49,0000.48,0000.12,0000.32,0000.65,0000.60,0000.44,18.5,24.6,07.7,05.3,0664.2,31.1
2021-06-25T15:52:00Z,00000200,00000000,0001.55,0000.83,0000.39,0000.20,0000.20,0000.09,0000.01,0000.05,-000.07,18.6,24.6,07.7,05.3,0664.1,31.1
2021-06-25T15:53:00Z,00000200,00000000,0001.18,0000.91,0000.51,-000.18,0000.16,0000.33,0001.07,0001.08,0000.46,18.6,24.6,07.8,05.4,0664.4,31.1
2021-06-25T15:54:00Z,00000200,00000000,0001.68,0000.64,0000.46,0000.64,0000.24,0000.20,-000.23,-000.59,-000.10,18.6,24.6,07.8,05.4,0664.0,31.1
2021-06-25T15:55:00Z,00000200,00000000,0001.16,0000.91,0000.54,0000.02,0000.16,0000.31,0000.17,0000.54,0000.43,18.6,24.6,07.5,05.2,0664.0,31.1
2021-06-25T15:56:00Z,00000200,00000000,0000.90,0000.73,0000.38,-000.32,0000.16,0000.09,0000.25,0000.43,-000.03,18.6,24.6,07.5,05.2,0663.8,31.1
2021-06-25T15:57:00Z,00000200,40000000,,,,,,,0000.38,-000.18,0000.13,18.6,24.7,07.8,05.4,0663.8,31.1
2021-06-25T15:58:00Z,00000200,60000000,,,,,,,0000.03,0000.42,0000.18,18.4,24.7,07.7,05.2,0663.3,31.1
2021-06-25T15:59:00Z,00000200,20000000,,,,,,,-000.03,0000.02,0000.01,18.3,24.8,07.7,05.2,0663.2,31.1
